[[{"header":{"parameterUnit":"m.s-1","parameterCategory":1,"la1":30.2991,"la2":30.254,"lo1":-89.0895,"lo2":-89.0444,"dy":0.0017,"dx":0.0017,"nx":28,"ny":28,"refTime":"2024-02-16T09:00:00:Z","depth":0,"parameterNumber":2,"parameterNumberName":"U-component_of_WINDS"},"data":[0,0,0,0,0,0,0,0,0,0,0,0,0,0,0,0,0,0,0,0,0,0,0,0,0,0,0,0,0,0,0,0,0,0,0,0,0,0,0,0,0,0,0,0,0,0,0,0,0,0,0,0,0,0,0,0,0,0,-1.5435,-1.5436,0,-1.5528,-1.5529,-1.553,-1.5503,-1.5501,-1.5499,-1.5497,-1.5595,-1.56,-1.5604,0,0,0,0,0,0,0,0,0,0,0,0,0,-1.5233,-1.5237,-1.5435,-1.5436,-1.5437,-1.5528,-1.5529,-1.5531,-1.5503,-1.5501,-1.5499,-1.5496,-1.5594,-1.5599,-1.5605,0,0,0,0,0,0,0,0,0,0,0,0,0,-1.5323,-1.5239,-1.5435,-1.5434,-1.5435,-1.5528,-1.5529,-1.5531,-1.5504,-1.5501,-1.5498,-1.5495,-1.5592,-1.5599,-1.5605,-1.5704,0,0,-1.5626,-1.5628,0,0,0,0,0,0,0,0,-1.5318,-1.5331,-1.5433,-1.5435,-1.5436,-1.5501,-1.5494,-1.5589,-1.5505,-1.5478,-1.5497,-1.5494,-1.5567,-1.5575,-1.5599,-1.5709,-1.5713,-1.5626,-1.563,-1.5633,-1.5635,0,0,0,0,0,0,0,-1.5312,-1.5327,-1.5472,-1.5435,-1.5436,-1.543,-1.5439,-1.5512,-1.5538,-1.548,-1.5478,-1.549,-1.5567,-1.5593,-1.5601,-1.5715,-1.5626,-1.5632,-1.5636,-1.5638,-1.591,-1.5913,0,0,0,0,0,0,-1.5305,-1.5322,-1.5469,-1.5475,-1.5369,-1.5436,-1.5447,-1.5483,-1.5537,-1.5542,-1.5492,-1.5488,-1.5583,-1.5593,-1.5605,-1.5724,-1.5633,-1.5639,-1.5643,-1.5906,-1.591,-1.5914,0,0,0,0,0,0,-1.5301,-1.5318,-1.5465,-1.5398,-1.5416,-1.5442,-1.5484,-1.5486,-1.5512,-1.5546,-1.555,-1.5514,-1.5581,-1.5595,-1.5679,-1.5727,-1.5642,-1.5648,-1.5903,-1.5908,-1.5912,-1.5964,0,0,0,0,0,0,-1.5295,-1.5317,-1.5355,-1.5399,-1.542,-1.5539,-1.5487,-1.549,-1.5524,-1.5519,-1.5567,-1.5573,-1.558,-1.567,-1.5686,-1.5735,-1.5653,-1.5899,-1.5905,-1.5911,-1.5959,-1.597,-1.5981,0,0,0,0,0,-1.5288,-1.5366,-1.5357,-1.5375,-1.5467,-1.5541,-1.5553,-1.5559,-1.5528,-1.5566,-1.5587,-1.5571,-1.5719,-1.5679,-1.5697,-1.5748,-1.5896,-1.5903,-1.591,-1.5954,-1.5968,-1.598,0,0,0,0,0,0,-1.5329,-1.5372,-1.5362,-1.5457,-1.5496,-1.5536,-1.5585,-1.5574,-1.5623,-1.5617,-1.5623,-1.5634,-1.5721,-1.5742,-1.5697,-1.5846,-1.5803,-1.5814,-1.5829,-1.5843,-1.5854,-1.5848,-1.5659,0,0,0,0,0,-1.5349,-1.5404,-1.5439,-1.552,-1.554,-1.5559,-1.5592,-1.5592,-1.5633,-1.5649,-1.5676,-1.5717,-1.5772,-1.5809,-1.5861,-1.5961,-1.5971,-1.6005,-1.6016,-1.6025,-1.6035,-1.6089,-1.6104,-1.5938,-1.5938,-1.5937,0,0,-1.5391,-1.5421,-1.5457,-1.5529,-1.5559,-1.5617,-1.5573,-1.5637,-1.568,-1.5659,-1.574,-1.5761,-1.5807,-1.5899,-1.5941,-1.592,-1.6083,-1.6034,-1.6041,-1.6046,-1.6098,-1.6114,-1.6128,-1.5943,-1.5942,-1.5941,0,0,-1.5498,-1.5526,-1.5596,-1.5627,-1.5672,-1.5684,-1.57,-1.5743,-1.5756,-1.5837,-1.5822,-1.5873,-1.5969,-1.6001,-1.603,-1.6147,-1.6134,-1.6164,-1.6222,-1.6275,-1.6288,-1.63,-1.6342,-1.6357,-1.6174,-1.6174,-1.6174,0,-1.5545,-1.5632,-1.5634,-1.5699,-1.5731,-1.5713,-1.5784,-1.5813,-1.5874,-1.5897,-1.5872,-1.599,-1.6019,-1.6119,-1.6147,-1.6171,-1.619,-1.616,-1.6286,-1.6297,-1.6308,-1.6349,-1.6365,-1.6177,-1.6177,-1.6176,-1.6176,0,-1.5688,-1.5748,-1.5799,-1.5857,-1.5894,-1.5962,-1.5975,-1.6012,-1.6009,-1.6024,-1.6106,-1.614,-1.6199,-1.6222,-1.622,-1.6321,-1.6307,-1.6284,-1.624,-1.6328,-1.6366,-1.6381,-1.6182,-1.6181,-1.618,-1.6179,0,0,-1.5826,-1.5882,-1.5901,-1.5927,-1.5974,-1.6021,-1.6087,-1.6143,-1.6176,-1.6217,-1.6274,-1.6353,-1.6332,-1.6365,-1.6366,-1.6412,-1.6502,-1.6383,-1.6384,-1.6405,-1.6616,-1.6634,-1.6652,-1.6493,-1.6496,-1.6498,-1.6612,0,-1.5938,-1.6054,-1.6057,-1.6164,-1.6219,-1.6201,-1.6259,-1.6294,-1.6309,-1.6358,-1.6374,-1.6431,-1.6398,-1.6418,-1.6462,-1.6482,-1.6545,-1.6473,-1.6546,-1.6549,-1.6537,-1.6672,-1.6692,-1.6798,-1.6627,-1.6629,-1.6631,0,-1.6085,-1.613,-1.6242,-1.628,-1.6303,-1.6355,-1.6406,-1.6453,-1.6493,-1.65,-1.6536,-1.653,-1.6597,-1.6549,-1.6642,-1.6594,-1.6623,-1.6637,-1.6641,-1.665,-1.6597,-1.6685,-1.6832,-1.6848,-1.6655,-1.6653,-1.6651,0,-1.6176,-1.6264,-1.6342,-1.6364,-1.6411,-1.6447,-1.6469,-1.6505,-1.6538,-1.6583,-1.6605,-1.6657,-1.6686,-1.6727,-1.6735,-1.6699,-1.6828,-1.6781,-1.6837,-1.6837,-1.6867,-1.6866,-1.7022,-1.6883,-1.6883,-1.6883,-1.6882,0,-1.6301,-1.6371,-1.6383,-1.6432,-1.6509,-1.6511,-1.6587,-1.6605,-1.6637,-1.6689,-1.6676,-1.6725,-1.6732,-1.6782,-1.6789,-1.6865,-1.6878,-1.6886,-1.6887,-1.6889,-1.6888,-1.6909,-1.6903,-1.6887,-1.6886,-1.6885,-1.6884,0,-1.6417,-1.6428,-1.6513,-1.6549,-1.6559,-1.6614,-1.6645,-1.6692,-1.6703,-1.6769,-1.6784,-1.6804,-1.6862,-1.6874,-1.6943,-1.6947,-1.7039,-1.7032,-1.7025,-1.7025,-1.7081,-1.7076,-1.7258,-1.7283,-1.7127,-1.7128,-1.7129,0,-1.6498,-1.6551,-1.6592,-1.6625,-1.6647,-1.6701,-1.6735,-1.6738,-1.6773,-1.6821,-1.6862,-1.6918,-1.6964,-1.7058,-1.7079,-1.7131,-1.7127,-1.7187,-1.7135,-1.7134,-1.7129,-1.7126,-1.7132,-1.7198,-1.7199,-1.7201,-1.7202,0,-1.664,-1.6642,-1.6691,-1.6741,-1.6781,-1.6821,-1.6859,-1.6887,-1.6895,-1.6936,-1.6995,-1.703,-1.71,-1.7156,-1.7208,-1.723,-1.7218,-1.7217,-1.7233,-1.7236,-1.7231,-1.7235,-1.7054,-1.7214,-1.7213,-1.7212,-1.7211,-1.7211,-1.6742,-1.6787,-1.6823,-1.6877,-1.6906,-1.6941,-1.6986,-1.7003,-1.7052,-1.7108,-1.7107,-1.7172,-1.7208,-1.7276,-1.7301,-1.7352,-1.7333,-1.7356,-1.7362,-1.7368,-1.7374,-1.722,-1.7361,-1.7361,-1.7361,-1.736,-1.736,0,-1.6884,-1.6905,-1.6955,-1.7008,-1.705,-1.7032,-1.7073,-1.711,-1.7167,-1.7201,-1.7246,-1.7313,-1.7368,-1.7391,-1.7445,-1.7481,-1.7476,-1.7495,-1.7493,-1.7498,-1.7387,-1.7369,-1.7497,-1.7497,-1.7497,-1.7497,-1.7497,-1.7497,-1.6963,-1.704,-1.7046,-1.7136,-1.7157,-1.722,-1.7245,-1.7277,-1.7304,-1.738,-1.7424,-1.7439,-1.7469,-1.7524,-1.7573,-1.7578,-1.7599,-1.7621,-1.7624,-1.752,-1.7506,-1.7493,-1.7476,-1.7625,-1.7625,-1.7731,-1.7732,-1.7733]},{"header":{"parameterUnit":"m.s-1","parameterCategory":1,"la1":30.2991,"la2":30.254,"lo1":-89.0895,"lo2":-89.0444,"dy":0.0017,"dx":0.0017,"nx":28,"ny":28,"refTime":"2024-02-16T09:00:00:Z","depth":0,"parameterNumber":3,"parameterNumberName":"V-component_of_WINDS"},"data":[0,0,0,0,0,0,0,0,0,0,0,0,0,0,0,0,0,0,0,0,0,0,0,0,0,0,0,0,0,0,0,0,0,0,0,0,0,0,0,0,0,0,0,0,0,0,0,0,0,0,0,0,0,0,0,0,0,0,-7.5944,-7.5944,0,-7.6025,-7.6026,-7.6027,-7.5931,-7.5927,-7.5924,-7.592,-7.5999,-7.6004,-7.6009,0,0,0,0,0,0,0,0,0,0,0,0,0,-7.5701,-7.5706,-7.5943,-7.5945,-7.5946,-7.6025,-7.6026,-7.6027,-7.5931,-7.5927,-7.5923,-7.5919,-7.5997,-7.6003,-7.601,0,0,0,0,0,0,0,0,0,0,0,0,0,-7.5796,-7.5707,-7.5943,-7.5908,-7.5905,-7.6024,-7.6026,-7.6027,-7.5932,-7.5927,-7.5922,-7.5917,-7.5995,-7.6003,-7.6011,-7.6167,0,0,-7.6035,-7.6039,0,0,0,0,0,0,0,0,-7.5791,-7.5805,-7.5912,-7.591,-7.5908,-7.5962,-7.5969,-7.6074,-7.5934,-7.5922,-7.592,-7.5914,-7.5991,-7.5999,-7.6025,-7.6171,-7.6174,-7.6036,-7.6041,-7.6045,-7.6047,0,0,0,0,0,0,0,-7.5784,-7.5801,-7.5975,-7.5913,-7.5911,-7.5886,-7.5893,-7.5988,-7.5985,-7.5922,-7.5916,-7.5927,-7.5988,-7.6018,-7.6027,-7.6176,-7.6036,-7.6043,-7.6048,-7.6051,-7.6453,-7.6458,0,0,0,0,0,0,-7.5783,-7.5796,-7.5973,-7.5978,-7.5835,-7.5894,-7.5903,-7.595,-7.5984,-7.5984,-7.5931,-7.5922,-7.6007,-7.6017,-7.6029,-7.6214,-7.6044,-7.6052,-7.6057,-7.6447,-7.6454,-7.646,0,0,0,0,0,0,-7.5778,-7.5799,-7.597,-7.5885,-7.5905,-7.5904,-7.5958,-7.5954,-7.5984,-7.5991,-7.5989,-7.5963,-7.6003,-7.6018,-7.6134,-7.6216,-7.6056,-7.6063,-7.644,-7.6449,-7.6457,-7.6587,0,0,0,0,0,0,-7.5771,-7.5798,-7.5859,-7.5888,-7.591,-7.6075,-7.5963,-7.596,-7.5999,-7.5987,-7.6019,-7.6019,-7.6,-7.6122,-7.6142,-7.6224,-7.6069,-7.6433,-7.6444,-7.6455,-7.6575,-7.6599,-7.6619,0,0,0,0,0,-7.5763,-7.5891,-7.5863,-7.5884,-7.5986,-7.608,-7.6093,-7.6069,-7.6006,-7.6066,-7.607,-7.6018,-7.6204,-7.6135,-7.6156,-7.6242,-7.6428,-7.6441,-7.6454,-7.6566,-7.6594,-7.6619,0,0,0,0,0,0,-7.5871,-7.5894,-7.5863,-7.6005,-7.6042,-7.6064,-7.6139,-7.61,-7.6154,-7.6141,-7.6108,-7.6116,-7.624,-7.6252,-7.6175,-7.6395,-7.6305,-7.6323,-7.6383,-7.641,-7.6432,-7.6426,-7.6076,0,0,0,0,0,-7.5912,-7.5987,-7.6003,-7.6127,-7.6147,-7.614,-7.618,-7.6159,-7.6195,-7.6209,-7.6221,-7.6257,-7.6323,-7.6367,-7.6428,-7.6577,-7.6581,-7.6646,-7.6668,-7.6686,-7.6702,-7.678,-7.6809,-7.6503,-7.6503,-7.6503,0,0,-7.5996,-7.6018,-7.6067,-7.6149,-7.6175,-7.6252,-7.6154,-7.624,-7.6297,-7.6221,-7.6333,-7.6343,-7.638,-7.6513,-7.6572,-7.6527,-7.6787,-7.6703,-7.6717,-7.6723,-7.6797,-7.6826,-7.6851,-7.6512,-7.6511,-7.6509,0,0,-7.6189,-7.6214,-7.6319,-7.6348,-7.6388,-7.6383,-7.6409,-7.6437,-7.6442,-7.6553,-7.6498,-7.6564,-7.6679,-7.6707,-7.6737,-7.6941,-7.6895,-7.6962,-7.7076,-7.7153,-7.7177,-7.7198,-7.7271,-7.7297,-7.6977,-7.6978,-7.6978,0,-7.6288,-7.6404,-7.6378,-7.6469,-7.6506,-7.6443,-7.6548,-7.6576,-7.6635,-7.6661,-7.661,-7.6752,-7.6773,-7.6911,-7.6961,-7.6988,-7.7014,-7.6958,-7.7176,-7.7197,-7.7216,-7.7285,-7.7312,-7.6985,-7.6985,-7.6984,-7.6983,0,-7.6524,-7.6605,-7.6685,-7.6745,-7.6791,-7.6889,-7.6875,-7.6925,-7.6899,-7.6899,-7.7012,-7.7035,-7.7099,-7.713,-7.7106,-7.7266,-7.7236,-7.7182,-7.709,-7.7254,-7.7318,-7.7344,-7.6997,-7.6994,-7.6991,-7.699,0,0,-7.6787,-7.6831,-7.6861,-7.6887,-7.6928,-7.6989,-7.7084,-7.7148,-7.7191,-7.7233,-7.731,-7.7409,-7.7358,-7.7392,-7.737,-7.7438,-7.7597,-7.7374,-7.7374,-7.7414,-7.7773,-7.7814,-7.7845,-7.7567,-7.7572,-7.7576,-7.777,0,-7.698,-7.7146,-7.7125,-7.7282,-7.7357,-7.7298,-7.7379,-7.7412,-7.7414,-7.7476,-7.7477,-7.7548,-7.7476,-7.7496,-7.7561,-7.7564,-7.7668,-7.755,-7.7637,-7.764,-7.763,-7.7879,-7.7922,-7.8105,-7.7795,-7.7799,-7.7802,0,-7.7228,-7.7281,-7.7447,-7.7476,-7.7506,-7.7581,-7.7638,-7.7698,-7.7733,-7.773,-7.7768,-7.7734,-7.7826,-7.7734,-7.786,-7.778,-7.7814,-7.7821,-7.7827,-7.7834,-7.7731,-7.7892,-7.8163,-7.819,-7.7841,-7.7838,-7.7835,0,-7.7403,-7.7516,-7.763,-7.7654,-7.769,-7.7744,-7.7761,-7.7791,-7.7831,-7.7881,-7.7906,-7.7965,-7.7997,-7.8043,-7.8025,-7.7959,-7.8155,-7.806,-7.8153,-7.8154,-7.8197,-7.8194,-7.8477,-7.822,-7.8219,-7.8219,-7.8218,0,-7.7622,-7.7725,-7.7709,-7.7779,-7.7893,-7.7866,-7.7979,-7.7989,-7.8016,-7.8086,-7.8037,-7.8103,-7.8075,-7.8139,-7.8125,-7.8231,-7.8246,-7.8245,-7.824,-7.825,-7.825,-7.8271,-7.8258,-7.8226,-7.8224,-7.8223,-7.8222,0,-7.7837,-7.783,-7.795,-7.7975,-7.7984,-7.8067,-7.8087,-7.8152,-7.815,-7.8238,-7.8257,-7.8254,-7.8327,-7.8313,-7.8392,-7.8383,-7.8516,-7.8495,-7.8505,-7.85,-7.8593,-7.8585,-7.8899,-7.8939,-7.8657,-7.8659,-7.8662,0,-7.7976,-7.8055,-7.8089,-7.8133,-7.8155,-7.8226,-7.8267,-7.8244,-7.8288,-7.8334,-7.8393,-7.8462,-7.8515,-7.8633,-7.8636,-7.8696,-7.8677,-7.8783,-7.8685,-7.8692,-7.8678,-7.8673,-7.8681,-7.8802,-7.8805,-7.8808,-7.881,0,-7.8225,-7.8218,-7.828,-7.8341,-7.8392,-7.8439,-7.848,-7.8518,-7.8498,-7.855,-7.8625,-7.8666,-7.8748,-7.8816,-7.8872,-7.8887,-7.8845,-7.8841,-7.8865,-7.8875,-7.8878,-7.8877,-7.8557,-7.8833,-7.8831,-7.8829,-7.8828,-7.8827,-7.8406,-7.8473,-7.8508,-7.8578,-7.8607,-7.8648,-7.871,-7.8716,-7.8778,-7.8844,-7.8826,-7.891,-7.8942,-7.9013,-7.9035,-7.9099,-7.906,-7.9095,-7.9104,-7.9113,-7.9125,-7.8868,-7.9109,-7.9109,-7.9108,-7.9107,-7.9107,0,-7.8652,-7.8671,-7.8737,-7.8797,-7.8852,-7.881,-7.8853,-7.8902,-7.8977,-7.9012,-7.9066,-7.915,-7.9216,-7.9225,-7.9287,-7.9336,-7.9319,-7.9353,-7.9349,-7.9353,-7.9157,-7.913,-7.9366,-7.9366,-7.9366,-7.9366,-7.9366,-7.9366,-7.8786,-7.8897,-7.8894,-7.9019,-7.9037,-7.912,-7.9149,-7.9185,-7.9212,-7.931,-7.9365,-7.9371,-7.9395,-7.9458,-7.9515,-7.9516,-7.9541,-7.9583,-7.9576,-7.9393,-7.9367,-7.9342,-7.9316,-7.9589,-7.9589,-7.9767,-7.9769,-7.977]}]]